TimeEST,TemperatureF,Dew PointF,Humidity,Sea Level PressureIn,VisibilityMPH,Wind Direction,Wind SpeedMPH,Gust SpeedMPH,PrecipitationIn,Events,Conditions,WindDirDegrees,DateUTC
12:15 AM,32.4,24.8,74,29.84,10.0,WNW,12.7,-,N/A,,Overcast,290,2013-02-15 05:15:00
12:35 AM,32.2,25.3,76,29.85,10.0,West,16.1,19.6,N/A,,Overcast,280,2013-02-15 05:35:00
12:54 AM,31.8,23.4,71,29.86,10.0,WNW,12.7,24.2,N/A,,Overcast,300,2013-02-15 05:54:00
1:15 AM,31.8,24.4,74,29.86,10.0,WNW,12.7,18.4,N/A,,Overcast,290,2013-02-15 06:15:00
1:35 AM,31.6,24.4,75,29.86,10.0,West,13.8,-,N/A,,Overcast,280,2013-02-15 06:35:00
1:54 AM,30.7,22.1,70,29.87,10.0,West,15.0,-,N/A,,Mostly Cloudy,280,2013-02-15 06:54:00
2:15 AM,30.2,22.5,73,29.88,10.0,West,11.5,19.6,N/A,,Mostly Cloudy,280,2013-02-15 07:15:00
2:35 AM,28.4,20.3,72,29.88,10.0,West,10.4,16.1,N/A,,Scattered Clouds,280,2013-02-15 07:35:00
2:55 AM,28.2,20.3,72,29.89,10.0,WNW,12.7,23.0,N/A,,Scattered Clouds,290,2013-02-15 07:55:00
3:15 AM,27.3,19.8,73,29.90,10.0,WNW,11.5,18.4,N/A,,Mostly Cloudy,290,2013-02-15 08:15:00
3:34 AM,26.6,18.9,73,29.91,10.0,WNW,11.5,-,N/A,,Mostly Cloudy,300,2013-02-15 08:34:00
3:55 AM,26.6,18.5,71,29.91,10.0,WNW,11.5,18.4,N/A,,Overcast,300,2013-02-15 08:55:00
4:15 AM,26.6,18.3,71,29.92,10.0,WNW,12.7,17.3,N/A,,Mostly Cloudy,290,2013-02-15 09:15:00
4:34 AM,26.6,18.5,71,29.93,10.0,WNW,9.2,-,N/A,,Mostly Cloudy,300,2013-02-15 09:34:00
4:55 AM,26.6,19.0,73,29.94,10.0,West,8.1,-,N/A,,Overcast,280,2013-02-15 09:55:00
5:15 AM,27.1,19.6,73,29.94,10.0,WNW,15.0,-,N/A,,Mostly Cloudy,290,2013-02-15 10:15:00
5:34 AM,25.5,16.5,69,29.96,10.0,WNW,11.5,-,N/A,,Scattered Clouds,290,2013-02-15 10:34:00
5:55 AM,24.8,15.8,69,29.97,10.0,WNW,10.4,-,N/A,,Clear,290,2013-02-15 10:55:00
6:15 AM,24.4,15.6,69,29.97,10.0,West,9.2,-,N/A,,Clear,280,2013-02-15 11:15:00
6:34 AM,24.3,15.4,69,29.98,10.0,West,6.9,-,N/A,,Clear,280,2013-02-15 11:34:00
6:55 AM,24.8,15.4,68,29.99,10.0,West,10.4,-,N/A,,Mostly Cloudy,270,2013-02-15 11:55:00
7:15 AM,25.0,15.4,67,29.99,10.0,WNW,10.4,-,N/A,,Overcast,290,2013-02-15 12:15:00
7:34 AM,24.8,15.8,69,30.00,10.0,West,9.2,-,N/A,,Overcast,270,2013-02-15 12:34:00
7:55 AM,24.4,15.6,69,30.01,10.0,WNW,10.4,-,N/A,,Scattered Clouds,290,2013-02-15 12:55:00
8:15 AM,24.8,15.8,69,30.01,10.0,West,9.2,-,N/A,,Scattered Clouds,280,2013-02-15 13:15:00
8:34 AM,25.5,15.8,67,30.02,10.0,WNW,12.7,19.6,N/A,,Scattered Clouds,290,2013-02-15 13:34:00
8:55 AM,26.1,15.8,65,30.03,10.0,West,11.5,-,N/A,,Clear,280,2013-02-15 13:55:00
9:15 AM,26.1,14.7,62,30.04,10.0,WNW,13.8,-,N/A,,Scattered Clouds,300,2013-02-15 14:15:00
9:34 AM,25.9,13.5,59,30.04,10.0,WNW,11.5,17.3,N/A,,Scattered Clouds,290,2013-02-15 14:34:00
9:55 AM,27.0,14.0,58,30.04,10.0,West,13.8,20.7,N/A,,Scattered Clouds,280,2013-02-15 14:55:00
10:15 AM,26.8,12.2,54,30.05,10.0,WNW,13.8,20.7,N/A,,Scattered Clouds,290,2013-02-15 15:15:00
10:35 AM,27.9,10.9,49,30.05,10.0,WNW,12.7,18.4,N/A,,Mostly Cloudy,300,2013-02-15 15:35:00
10:55 AM,27.5,10.8,49,30.05,10.0,WNW,15.0,-,N/A,,Mostly Cloudy,290,2013-02-15 15:55:00
11:14 AM,28.4,10.6,47,30.05,10.0,WNW,8.1,16.1,N/A,,Mostly Cloudy,300,2013-02-15 16:14:00
11:35 AM,28.2,10.9,48,30.05,10.0,West,12.7,19.6,N/A,,Overcast,280,2013-02-15 16:35:00
11:55 AM,27.7,10.6,49,30.06,10.0,WNW,13.8,17.3,N/A,,Overcast,290,2013-02-15 16:55:00
12:14 PM,28.2,10.8,48,30.06,10.0,WNW,13.8,18.4,N/A,,Overcast,290,2013-02-15 17:14:00
12:55 PM,27.7,11.3,50,30.05,10.0,WNW,9.2,-,N/A,,Overcast,290,2013-02-15 17:55:00
1:14 PM,28.2,10.9,48,30.05,10.0,West,10.4,-,N/A,,Overcast,280,2013-02-15 18:14:00
1:35 PM,27.7,12.0,52,30.06,10.0,WNW,10.4,-,N/A,,Overcast,290,2013-02-15 18:35:00
1:55 PM,27.9,11.7,51,30.06,10.0,West,12.7,17.3,N/A,,Overcast,270,2013-02-15 18:55:00
2:14 PM,28.0,12.0,51,30.05,10.0,West,12.7,-,N/A,,Overcast,280,2013-02-15 19:14:00
2:35 PM,27.9,12.6,53,30.05,7.0,WNW,12.7,-,N/A,Snow,Light Snow,290,2013-02-15 19:35:00
2:54 PM,28.0,10.6,48,30.05,10.0,West,6.9,-,N/A,,Overcast,280,2013-02-15 19:54:00
3:15 PM,28.9,10.8,47,30.05,10.0,West,11.5,-,N/A,,Overcast,270,2013-02-15 20:15:00
3:35 PM,28.8,9.5,45,30.06,10.0,WNW,10.4,16.1,N/A,,Overcast,300,2013-02-15 20:35:00
3:54 PM,28.8,11.5,49,30.06,10.0,West,9.2,-,N/A,,Overcast,280,2013-02-15 20:54:00
4:15 PM,28.4,10.9,48,30.06,10.0,WNW,11.5,-,N/A,,Overcast,300,2013-02-15 21:15:00
4:35 PM,28.2,12.9,53,30.07,10.0,WNW,10.4,-,N/A,,Overcast,300,2013-02-15 21:35:00
4:54 PM,28.2,12.7,52,30.07,10.0,West,8.1,-,N/A,,Overcast,280,2013-02-15 21:54:00
5:15 PM,28.4,12.0,50,30.07,10.0,West,9.2,-,N/A,,Overcast,270,2013-02-15 22:15:00
5:35 PM,28.2,12.7,52,30.07,10.0,West,4.6,-,N/A,,Overcast,280,2013-02-15 22:35:00
5:54 PM,28.0,12.2,52,30.07,10.0,West,8.1,-,N/A,,Overcast,280,2013-02-15 22:54:00
6:15 PM,27.9,13.5,55,30.08,10.0,West,6.9,-,N/A,,Overcast,270,2013-02-15 23:15:00
6:34 PM,27.5,14.2,57,30.08,10.0,West,11.5,-,N/A,,Overcast,270,2013-02-15 23:34:00
6:55 PM,27.5,14.2,57,30.09,10.0,West,8.1,-,N/A,,Overcast,260,2013-02-15 23:55:00
7:15 PM,27.5,14.9,59,30.09,10.0,West,6.9,-,N/A,,Overcast,260,2013-02-16 00:15:00
7:34 PM,27.1,14.7,60,30.09,10.0,West,10.4,-,N/A,Snow,Light Snow,260,2013-02-16 00:34:00
7:55 PM,27.3,13.8,57,30.09,10.0,West,8.1,-,N/A,,Overcast,280,2013-02-16 00:55:00
8:14 PM,27.1,13.8,57,30.09,10.0,West,10.4,-,N/A,,Overcast,260,2013-02-16 01:14:00
8:35 PM,26.2,15.4,64,30.10,5.0,WNW,13.8,19.6,N/A,Snow,Light Snow,290,2013-02-16 01:35:00
8:55 PM,25.7,12.6,58,30.10,10.0,West,12.7,20.7,N/A,,Overcast,280,2013-02-16 01:55:00
9:14 PM,25.5,10.9,54,30.11,10.0,WNW,12.7,18.4,N/A,,Overcast,290,2013-02-16 02:14:00
9:35 PM,24.8,10.2,54,30.11,10.0,WNW,12.7,18.4,N/A,,Overcast,300,2013-02-16 02:35:00
9:54 PM,24.4,10.8,56,30.11,10.0,WNW,10.4,19.6,N/A,,Overcast,300,2013-02-16 02:54:00
10:15 PM,24.3,10.8,56,30.11,10.0,WNW,6.9,17.3,N/A,,Overcast,300,2013-02-16 03:15:00
10:35 PM,23.0,10.9,60,30.11,10.0,WNW,8.1,-,N/A,,Scattered Clouds,290,2013-02-16 03:35:00
10:54 PM,22.8,10.6,59,30.10,10.0,WNW,8.1,-,N/A,,Clear,290,2013-02-16 03:54:00
11:15 PM,21.7,10.6,62,30.10,10.0,West,4.6,-,N/A,,Clear,280,2013-02-16 04:15:00
11:35 PM,21.0,10.9,65,30.09,10.0,Calm,Calm,-,N/A,,Clear,0,2013-02-16 04:35:00
11:54 PM,20.1,10.8,67,30.09,10.0,West,3.5,-,N/A,,Clear,270,2013-02-16 04:54:00